www.pogodaiklimat.ru

Архив погоды в Леруике (Великобритания)

Время
(UTC), дата
13 7.06
14 7.06
15 7.06
16 7.06
17 7.06
18 7.06
19 7.06
20 7.06
21 7.06
22 7.06
23 7.06
00 8.06
01 8.06
02 8.06
03 8.06
04 8.06
05 8.06
06 8.06
07 8.06
08 8.06
09 8.06
10 8.06
11 8.06
12 8.06
13 8.06
14 8.06
15 8.06
16 8.06
17 8.06
18 8.06
19 8.06
20 8.06
21 8.06
22 8.06
23 8.06
00 9.06
01 9.06
02 9.06
03 9.06
04 9.06
05 9.06
06 9.06
07 9.06
08 9.06
09 9.06
10 9.06
11 9.06
12 9.06
13 9.06
14 9.06
15 9.06
16 9.06
17 9.06
18 9.06
19 9.06
20 9.06
21 9.06
22 9.06
23 9.06
00 10.06
01 10.06
02 10.06
03 10.06
04 10.06
05 10.06
06 10.06
07 10.06
08 10.06
09 10.06
10 10.06
11 10.06
12 10.06
13 10.06
14 10.06
15 10.06
16 10.06
17 10.06
18 10.06
19 10.06
20 10.06
21 10.06
22 10.06
23 10.06
00 11.06
01 11.06
02 11.06
03 11.06
04 11.06
05 11.06
06 11.06
07 11.06
08 11.06
09 11.06
10 11.06
11 11.06
12 11.06
13 11.06
14 11.06
15 11.06
16 11.06
17 11.06
18 11.06
19 11.06
20 11.06
21 11.06
22 11.06
23 11.06
00 12.06
01 12.06
02 12.06
03 12.06
04 12.06
05 12.06
06 12.06
07 12.06
08 12.06
09 12.06
10 12.06
11 12.06
12 12.06
13 12.06
14 12.06
15 12.06
16 12.06
17 12.06
18 12.06
19 12.06
20 12.06
21 12.06
22 12.06
23 12.06
00 13.06
01 13.06
02 13.06
03 13.06
04 13.06
05 13.06
06 13.06
07 13.06
08 13.06
09 13.06
10 13.06
11 13.06
12 13.06
13 13.06
14 13.06
15 13.06
16 13.06
17 13.06
18 13.06
19 13.06
20 13.06
21 13.06
22 13.06
23 13.06
00 14.06
01 14.06
02 14.06
03 14.06
04 14.06
05 14.06
06 14.06
07 14.06
08 14.06
09 14.06
10 14.06
11 14.06
12 14.06
Ветер
(напр.,м/с)
Видим. Явления Облачность Т
(С)
Тd
(С)
f
(%)
Тe
(С)
Тes
(С)
Комфортность P
(гПа)
Po
(гПа)
Тmin
(С)
Tmax
(С)
R
(мм)
R24
(мм)
S
(см)
ЮЗ 9-12 {13} 40 км 10/10 600 м +10.6 +4.7 67 +7 +7 тепло 1003.2 993.4
ЮЗ 9-12 {13} 40 км 10/10 500 м +9.9 +4.8 71 +6 +6 тепло 1002.9 993.1
ЮЗ 10-13 {13} 3400 м слаб. дождь 10/10 540 м +8.8 +5.1 78 +4 +4 по сезону 1002.6 992.7
ЮЗ 4 30 км в посл. час дождь 10/10 1140 м +9.0 +6.7 85 +6 +6 тепло 1001.9 992.0
ЮЗ 4 35 км в посл. час дождь 10/10 420 м +8.8 +6.1 83 +6 +6 тепло 1001.3 991.4
ЮЗ 5-12 {12} 40 км в посл. час дождь 10/10 630 м +8.4 +5.4 81 +5 +5 по сезону 1000.8 990.9 +11.8 1
ЮЗ 4 9000 м слаб. дождь 10/10 420 м +6.9 +5.2 89 +3 +3 по сезону 1000.3 990.4
Ю 4 29 км слаб. дождь 10/10 930 м +7.4 +6.3 93 +4 +4 тепло 999.6 989.7
Ю 7-10 {11} 25 км в посл. час дождь 10/10 630 м +7.5 +6.1 91 +3 +3 по сезону 999.0 989.0 +11.8 3
Ю 3 26 км в посл. час дождь 10/10 270 м +6.8 +5.7 93 +4 +4 тепло 998.2 988.2
Ю 6-8 {10} 35 км 10/10 360 м +7.1 +5.8 91 +3 +3 тепло 997.8 987.9
ЮЗ 4-11 {11} 7000 м слаб. дождь 10/10 1000 м +6.6 +5.0 90 +3 +3 по сезону 997.4 987.5
ЮЗ 5-7 {10} 55 км в посл. час дождь 10/10 500 м +5.7 +4.2 90 +1 +1 тепло 997.0 987.0 0.2
ЮЗ 2 50 км 10/10 540 м +5.7 +4.2 90 +4 +4 тепло 996.6 986.6
ЮЗ 1-2 {4} 15 км дождь 10/10 420 м +6.1 +4.7 91 +5 +5 по сезону 996.2 986.3 0.2
З 2 65 км 1/1 600 м +6.3 +4.7 89 +4 +4 тепло 995.9 985.9
З 2-3 {4} 65 км 9/9 1300 м +6.4 +4.6 88 +5 +5 тепло 995.9 986.0
СЗ 2-3 {3} >70 км 3/3 1300 м +7.5 +4.6 82 +6 +8 тепло 996.1 986.2 +5.5 +8.4 4.2
СЗ 4-6 {7} 25 км слаб. дождь 10/10 240 м +7.8 +5.3 84 +4 +7 тепло 996.4 986.6
СЗ 3 >70 км в посл. час дождь 10/10 330 м +7.7 +5.7 87 +5 +5 тепло 996.8 986.9
СЗ 8-12 {12} 4000 м дождь 10/10 210 м +7.9 +6.0 88 +3 +3 по сезону 996.9 987.0 +9.9 2
СЗ 4 45 км в посл. час дождь 10/10 330 м +8.6 +6.2 85 +5 +5 тепло 997.3 987.4
СЗ 5 22 км слаб. дождь 10/10 360 м +8.0 +6.5 90 +4 +4 тепло 997.9 988.0
СЗ 4-13 {13} 19 км слаб. дождь 10/10 360 м +9.5 +7.3 86 +7 +7 тепло 998.0 988.2 0.8
СЗ 9-13 {13} 60 км в посл. час дождь 10/10 420 м +9.1 +5.8 80 +5 +5 тепло 998.3 988.4
З 6-13 {14} 45 км в посл. час осадки 10/10 300 м +9.0 +6.3 83 +5 +5 тепло 998.7 988.8
СЗ 5-15 {15} 40 км в посл. час дождь 10/10 400 м +10.0 +6.9 81 +7 +7 тепло 998.7 988.9
СЗ 6-14 {15} 40 км 6/6 300 м +9.5 +6.0 79 +6 +7 тепло 998.9 989.0
З 5-12 {16} 6000 м слаб. дождь 10/10 210 м +8.1 +6.4 89 +4 +4 тепло 999.3 989.4 0.6
СЗ 4-12 {13} 9000 м слаб. дождь 10/10 270 м +8.2 +6.5 89 +5 +5 по сезону 999.3 989.4 +10.4 0.2
СЗ 4-12 {15} 2900 м дождь 10/10 210 м +7.7 +6.5 92 +4 +4 тепло 999.4 989.5 3
З 6-13 {15} 18 км дождь 10/10 210 м +8.1 +6.8 91 +4 +4 тепло 999.0 989.1 2
СЗ 4-10 {14} 24 км слаб. дождь 10/10 180 м +7.6 +6.7 94 +4 +4 по сезону 999.4 989.5 +10.4 0.6
З 4-12 {12} 23 км осадки 10/10 240 м +7.7 +6.6 93 +4 +4 тепло 999.3 989.4 0.4
З 4-13 {13} 26 км слаб. дождь 10/10 210 м +8.0 +6.9 93 +5 +5 тепло 999.0 989.1 0.2
СЗ 4-11 {14} 30 км в посл. час дождь 3/3 300 м +7.4 +5.5 88 +4 +4 по сезону 998.6 988.7 0.2
З 4-8 {11} 26 км 5/5 1410 м +7.2 +5.3 88 +4 +4 тепло 998.4 988.5
СЗ 5-7 {7} 19 км 4/4 330 м +7.5 +6.4 93 +4 +4 тепло 998.2 988.3
СЗ 5-7 {7} 23 км 8/8 270 м +8.0 +7.1 94 +4 +4 по сезону 998.2 988.3
СЗ 3 30 км ясно +8.3 +7.2 93 +5 +6 тепло 998.1 988.2
СЗ 6-9 {9} 35 км ясно +9.2 +7.8 91 +5 +6 тепло 998.1 988.3
С 8-10 {11} 45 км 5/5 1200 м +9.9 +7.2 83 +6 +6 тепло 998.3 988.5 +6.9 +10.2 9.6
С 4 65 км в посл. час дождь 6/6 300 м +10.7 +8.4 86 +8 +8 тепло 998.8 989.0
С 6 26 км 10/10 330 м +10.8 +7.6 81 +8 +8 тепло 999.2 989.4
С 10-13 {14} 22 км 10/10 330 м +10.5 +7.8 83 +6 +6 тепло 999.6 989.8 +11.1 1
С 6 27 км в посл. час дождь 10/10 450 м +10.8 +6.7 76 +8 +8 тепло 1000.4 990.6
С 11-14 {15} 26 км 10/10 540 м +11.0 +6.4 73 +7 +7 тепло 1000.9 991.1
С 11-15 {15} 29 км 10/10 540 м +11.0 +6.6 74 +7 +7 тепло 1001.4 991.6
С 10-13 {14} 25 км слаб. дождь 10/10 500 м +10.6 +6.9 78 +6 +6 тепло 1002.0 992.2
С 5-13 {13} 30 км в посл. час дождь 10/10 480 м +10.5 +6.4 76 +8 +8 тепло 1002.2 992.4
С 5-13 {15} 17 км морось 10/10 480 м +10.4 +6.2 75 +7 +7 тепло 1002.6 992.8
С 6-12 {14} 27 км 10/10 480 м +9.7 +5.8 77 +6 +6 тепло 1003.0 993.2
С 5-13 {13} 25 км 10/10 540 м +9.7 +6.0 78 +7 +7 тепло 1003.4 993.5
С 9-12 {13} 23 км 10/10 480 м +9.3 +6.1 80 +5 +5 по сезону 1003.9 994.0 +11.4
С 5-14 {14} 25 км в посл. час снег 10/10 420 м +9.1 +6.2 82 +6 +6 тепло 1004.4 994.5
С 5-14 {14} 30 км в посл. час дождь 10/10 500 м +8.8 +5.6 80 +5 +5 тепло 1004.8 994.9
СЗ 9-12 {13} 29 км в посл. час дождь 10/10 500 м +8.4 +5.6 83 +3 +3 по сезону 1005.5 995.6 +11.4
С 5-12 {14} 30 км 10/10 720 м +8.3 +5.1 80 +5 +5 тепло 1006.0 996.0
С 4-12 {12} 30 км 10/10 630 м +8.2 +4.2 76 +5 +5 тепло 1006.3 996.4
СЗ 4-11 {12} 35 км 10/10 750 м +8.2 +4.8 79 +5 +5 по сезону 1006.4 996.5
СЗ 5-11 {12} 30 км слаб. морось 10/10 540 м +7.9 +4.4 79 +4 +4 по сезону 1006.6 996.6
СЗ 4 30 км 10/10 600 м +7.7 +4.7 81 +5 +5 тепло 1006.5 996.5
СЗ 7-10 {13} 30 км 10/10 540 м +7.6 +4.2 79 +3 +3 по сезону 1006.6 996.6
СЗ 7-12 {12} 50 км 10/10 540 м +7.4 +3.5 76 +3 +3 по сезону 1006.4 996.4
СЗ 4 50 км в посл. час дождь 10/10 300 м +6.5 +4.6 88 +3 +3 тепло 1006.3 996.3
СЗ 4-10 {10} 55 км в посл. час дождь со снегом 1/1 960 м +7.9 +4.1 77 +5 +6 по сезону 1006.2 996.2 +6.3 +9.3 0.2
СЗ 3 2800 м дождь 10/10 210 м +7.9 +6.6 91 +5 +5 по сезону 1006.3 996.3
СЗ 4 50 км слаб. дождь 10/10 180 м +8.4 +7.2 92 +5 +5 тепло 1006.6 996.6
СЗ 10-14 {15} 45 км в посл. час дождь 10/10 210 м +9.0 +7.4 90 +4 +4 прохладно 1006.8 996.8 +9.0 0.4
СЗ 5 13 км слаб. дождь 10/10 180 м +8.9 +7.7 92 +5 +5 по сезону 1007.3 997.4
С 5 18 км дождь 10/10 240 м +8.9 +7.2 89 +5 +5 тепло 1007.7 997.7
С 10-13 {14} 40 км дождь 10/10 400 м +10.1 +6.8 80 +6 +6 по сезону 1007.9 998.0 0.2
С 8-11 {15} 23 км слаб. дождь 10/10 330 м +9.9 +7.3 84 +6 +6 по сезону 1008.5 998.6
С 5-13 {13} 23 км слаб. дождь 10/10 300 м +10.0 +7.0 82 +7 +7 тепло 1008.8 998.9 0.2
С 5-13 {14} 18 км в посл. час дождь 10/10 420 м +9.9 +6.6 80 +7 +7 по сезону 1009.3 999.3
С 5-13 {13} 30 км в посл. час дождь 10/10 540 м +10.0 +7.1 82 +7 +7 тепло 1009.9 999.9 0.4
С 5-11 {13} 50 км 10/10 500 м +9.4 +5.9 79 +6 +6 тепло 1010.2 1000.2
СЗ 4-10 {12} 35 км 10/10 400 м +9.2 +6.2 81 +6 +6 по сезону 1010.4 1000.4 +10.5
С 4-11 {11} 4700 м дождь 10/10 120 м +9.5 +7.5 87 +7 +7 тепло 1010.7 1000.7
С 4-9 {12} 18 км в посл. час дождь 10/10 270 м +8.7 +7.7 93 +5 +5 тепло 1011.3 1001.3 0.4
С 4-10 {11} 21 км в посл. час морось 10/10 1410 м +8.6 +6.5 87 +5 +5 по сезону 1011.9 1001.9 +10.5
С 9-12 {12} 29 км в посл. час морось 10/10 450 м +8.1 +6.2 87 +5 +5 по сезону 1012.4 1002.4
С 4-9 {11} 6000 м слаб. морось с дождем 10/10 270 м +7.9 +6.6 91 +5 +5 тепло 1012.7 1002.7
С 9-11 {14} 35 км в посл. час морось 10/10 540 м +7.2 +5.7 90 +2 +2 прохладно 1013.0 1003.0
С 5-13 {13} 45 км 3/3 1170 м +7.5 +5.6 88 +4 +4 тепло 1013.2 1003.1
С 4 45 км в посл. час морось 10/10 660 м +6.4 +5.1 91 +2 +2 тепло 1013.5 1003.4
СЗ 4-9 {11} 60 км в посл. час морось 10/10 1020 м +6.8 +4.8 87 +3 +3 по сезону 1013.6 1003.5
С 7-10 {11} 55 км 10/10 800 м +6.8 +3.9 82 +2 +2 по сезону 1013.8 1003.7
С 8-11 {12} 6000 м слаб. дождь 10/10 540 м +6.8 +4.0 82 +2 +2 тепло 1014.2 1004.1
С 5-12 {13} 60 км в посл. час дождь 10/10 240 м +6.4 +4.8 89 +2 +2 прохладно 1014.6 1004.5 +6.1 +9.6 0.2 2.8
С 4 >70 км в посл. час морось 10/10 270 м +7.5 +4.8 83 +4 +4 по сезону 1015.2 1005.1
С 4-11 {12} 20 км слаб. дождь 10/10 330 м +7.7 +4.7 81 +4 +4 тепло 1015.3 1005.3
С 10-13 {13} 9000 м слаб. дождь 10/10 300 м +7.7 +5.5 86 +2 +2 прохладно 1015.7 1005.6 +8.6 0.2
С 4-12 {12} >70 км в посл. час дождь 10/10 480 м +7.9 +6.4 90 +5 +5 по сезону 1015.6 1005.6 0.6
С 5-11 {13} 30 км в посл. час дождь 10/10 450 м +7.1 +4.7 85 +3 +3 тепло 1016.0 1005.9
СЗ 5-13 {14} 55 км слаб. дождь 10/10 500 м +8.4 +4.1 74 +5 +5 прохладно 1016.1 1006.1
СЗ 9-12 {13} 55 км 10/10 750 м +8.6 +3.2 69 +4 +4 по сезону 1016.4 1006.4
СЗ 9-13 {13} 60 км 10/10 540 м +8.3 +3.4 71 +4 +4 тепло 1016.7 1006.7
СЗ 9-14 {14} 60 км 10/10 720 м +8.4 +2.9 68 +4 +4 прохладно 1016.8 1006.7
СЗ 8-11 {14} 60 км 10/10 570 м +8.2 +3.3 71 +4 +4 по сезону 1016.8 1006.8
С 4 60 км в посл. час морось 10/10 420 м +6.5 +4.8 89 +3 +3 тепло 1017.3 1007.1
С 5-12 {13} 30 км в посл. час дождь 10/10 540 м +7.0 +3.8 80 +3 +3 прохладно 1017.4 1007.3 +9.4
С 5 35 км слаб. дождь 10/10 570 м +7.1 +3.5 78 +3 +3 по сезону 1017.6 1007.5
СЗ 4 >70 км в посл. час дождь 10/10 900 м +6.7 +3.6 81 +3 +3 тепло 1017.8 1007.7
С 8-11 {12} 65 км 10/10 900 м +6.9 +1.9 70 +2 +2 прохладно 1018.1 1008.0 +9.4 0.8
СЗ 6-9 {10} 40 км 10/10 570 м +6.7 +2.5 75 +2 +2 по сезону 1018.1 1008.0
С 7-9 {10} 55 км 10/10 800 м +6.7 +2.8 76 +2 +2 тепло 1017.8 1007.6
СЗ 3-8 {10} 55 км 10/10 750 м +6.8 +2.6 75 +4 +4 по сезону 1017.7 1007.6
С 7-9 {9} 26 км слаб. морось 10/10 450 м +6.6 +3.5 81 +2 +2 по сезону 1017.7 1007.6
СЗ 3 45 км в посл. час морось 10/10 700 м +6.4 +3.7 83 +4 +4 тепло 1017.4 1007.3
СЗ 5-8 {9} 50 км 10/10 700 м +6.5 +2.8 77 +2 +2 прохладно 1017.1 1007.0
СЗ 4-6 {9} 45 км 10/10 540 м +6.6 +3.2 79 +3 +3 по сезону 1017.1 1007.0
СЗ 2 45 км 10/10 700 м +7.0 +3.5 78 +5 +5 тепло 1016.8 1006.7
СЗ 3-7 {7} 45 км 10/10 2000 м +7.3 +3.3 76 +5 +6 по сезону 1016.7 1006.6 +6.3 +7.6 0.8
СЗ 3 55 км 10/10 500 м +7.6 +3.7 76 +5 +7 тепло 1016.5 1006.4
СЗ 3 50 км 10/10 500 м +8.1 +3.8 74 +6 +6 тепло 1016.4 1006.4
СЗ 5-7 {8} 50 км 10/10 480 м +8.6 +4.6 76 +5 +5 по сезону 1016.1 1006.1 +8.6
СЗ 6-8 {8} 50 км 10/10 540 м +8.9 +4.9 76 +5 +5 по сезону 1015.9 1005.9
З 3 >70 км 10/10 600 м +8.9 +5.0 77 +6 +6 тепло 1015.6 1005.5
З 7-9 {9} 50 км 10/10 480 м +8.8 +4.9 76 +5 +5 прохладно 1015.3 1005.3
З 5-7 {11} 25 км в посл. час дождь 10/10 210 м +7.5 +6.1 91 +3 +3 по сезону 1015.4 1005.3 2
З 3 50 км 10/10 450 м +8.3 +7.0 92 +6 +6 тепло 1015.0 1005.0
СЗ 5-8 {8} 50 км 10/10 450 м +9.3 +6.0 80 +6 +6 по сезону 1014.6 1004.6
С 3 45 км слаб. морось с дождем 10/10 360 м +8.8 +6.4 85 +7 +7 тепло 1014.3 1004.3
СЗ 3 25 км в посл. час дождь 9/9 480 м +9.3 +6.1 80 +7 +7 тепло 1014.0 1004.0
СЗ 4-7 {8} 16 км 10/10 480 м +8.9 +5.8 81 +6 +6 по сезону 1014.1 1004.1 +9.8
СЗ 2 15 км слаб. дождь 10/10 870 м +7.9 +6.5 91 +6 +6 по сезону 1014.2 1004.1
СЗ 2 11 км в посл. час дождь 10/10 900 м +8.0 +6.7 91 +6 +6 тепло 1013.9 1003.8
СЗ 3-5 {5} 12 км в посл. час дождь 10/10 1170 м +8.0 +6.5 90 +5 +5 по сезону 1013.7 1003.7 +9.8 3
СЗ 1 15 км в посл. час морось 10/10 800 м +7.7 +6.3 91 +7 +7 тепло 1013.4 1003.4
СЗ 1 12 км дымка 10/10 1320 м +7.6 +6.2 91 +7 +7 тепло 1013.1 1003.0
З 2-3 {4} 10 км дымка 10/10 630 м +7.8 +6.7 93 +6 +6 по сезону 1013.0 1002.9
З 2 11 км дымка 10/10 1000 м +7.8 +6.8 93 +6 +6 тепло 1012.5 1002.5
С 1 11 км дымка 10/10 800 м +7.8 +6.6 92 +8 +8 тепло 1012.1 1002.0
С 1-2 {2} 13 км дымка 10/10 750 м +7.5 +6.4 93 +8 +8 по сезону 1011.7 1001.7
С 1 19 км в посл. час дождь 10/10 720 м +7.6 +6.5 93 +8 +8 тепло 1011.5 1001.5
СВ 2 60 км 10/10 800 м +7.8 +6.7 93 +6 +6 тепло 1011.3 1001.3
СВ 2-4 {4} 55 км 10/10 800 м +8.3 +6.0 85 +7 +7 по сезону 1011.2 1001.2 +7.4 +8.9 2.6
СВ 3-4 {4} 60 км 10/10 480 м +8.3 +5.5 83 +6 +6 тепло 1011.2 1001.2
В 4-5 {5} 65 км 10/10 480 м +8.5 +5.2 80 +6 +6 тепло 1010.8 1000.8
В 4-5 {5} >70 км 10/10 500 м +8.6 +4.8 77 +6 +6 по сезону 1010.6 1000.6 +9.0
В 4-5 {6} 65 км 10/10 570 м +8.8 +4.9 76 +6 +6 по сезону 1010.4 1000.4
В 4-5 {6} 65 км 10/10 570 м +9.1 +5.1 76 +6 +6 тепло 1010.1 1000.2
В 4-5 {5} 40 км 10/10 570 м +9.4 +5.2 75 +7 +7 по сезону 1009.9 999.9
В 4-6 {6} 60 км 10/10 570 м +9.6 +5.4 75 +7 +7 по сезону 1009.7 999.8
В 5-7 {7} 65 км 10/10 600 м +10.3 +5.9 74 +7 +7 тепло 1009.4 999.5
В 5-7 {7} 65 км 10/10 600 м +9.5 +5.2 75 +6 +6 по сезону 1009.0 999.0
В 6-7 {8} 45 км 10/10 480 м +9.7 +5.4 75 +6 +6 по сезону 1008.4 998.5
В 6-8 {8} 30 км 10/10 450 м +9.1 +5.5 78 +5 +5 тепло 1008.0 998.1
В 6-8 {8} 30 км 10/10 450 м +9.3 +5.8 79 +6 +6 по сезону 1007.6 997.7 +10.7
В 5-7 {8} 25 км 1/1 450 м +8.8 +5.3 79 +5 +5 по сезону 1007.1 997.2
В 6-8 {8} 6000 м слаб. дождь 10/10 210 м +8.6 +5.8 83 +5 +5 тепло 1006.8 996.8
ЮВ 2-7 {8} 5000 м слаб. дождь 10/10 120 м +7.7 +6.5 93 +4 +4 по сезону 1006.2 996.2 +10.7 0.4
В 3 7000 м морось 10/10 330 м +7.4 +6.6 95 +5 +5 по сезону 1006.1 996.1
В 2 19 км слаб. дождь 10/10 960 м +7.6 +7.0 96 +6 +6 тепло 1005.5 995.6
В 3-8 {8} 11 км слаб. дождь 10/10 400 м +7.9 +6.4 90 +5 +5 по сезону 1004.9 994.9
В 4 18 км слаб. морось 10/10 270 м +8.0 +6.9 93 +5 +5 тепло 1004.4 994.5
В 4 18 км в посл. час морось 10/10 330 м +8.3 +6.7 90 +5 +5 тепло 1003.9 994.0
В 5-13 {13} 18 км 10/10 300 м +8.7 +7.2 90 +5 +5 по сезону 1003.0 993.1
В 10-13 {14} 14 км 10/10 270 м +9.1 +7.6 90 +4 +4 по сезону 1002.6 992.7
В 6 12 км слаб. дождь 10/10 240 м +9.3 +8.3 93 +6 +6 тепло 1002.0 992.1
В 6-16 {16} 12 км в посл. час дождь 10/10 240 м +9.9 +8.6 92 +6 +6 по сезону 1001.7 991.9 +7.4 +9.8 0.2 1.8
В 10-15 {16} 13 км 10/10 270 м +10.0 +8.6 91 +5 +5 по сезону 1001.9 992.0
В 6 9000 м слаб. дождь 10/10 210 м +10.3 +9.3 94 +7 +7 тепло 1002.1 992.3
В 11-15 {16} 8000 м слаб. дождь 10/10 180 м +10.5 +9.5 94 +6 +6 по сезону 1002.2 992.4 +10.8 2
В 6 6000 м слаб. дождь 10/10 120 м +10.4 +9.7 95 +7 +7 тепло 1002.1 992.3
В 7 6000 м слаб. дождь 10/10 180 м +10.8 +9.9 94 +7 +7 тепло 1001.7 991.9
В 7-17 {20} 5000 м осадки 10/10 180 м +10.7 +10.1 96 +7 +7 по сезону 1001.7 991.9 0.4
Местоположение метеостанции Леруик (Великобритания): широта 60.13 долгота -1.18 высота над уровнем моря 84 м.
В архиве по умолчанию представлена погода в Леруике за последнюю неделю. Архивные данные за месяц целиком и за предыдущие месяцы, начиная с января 2011 года, Вы можете получить, выбрав интересующий диапазон дат из раскрывающегося списка и нажав кнопку "Найти!".
*Определитесь, кто Вы:
Внимание! Время в таблицах - всемирное. Для получения местного времени необходимо прибавить поправку, которая равна 0 ч.
Некоторые строки с данными для отдельных станций могут быть выделены курсивом. Это означает, что фактические данные отсутствуют по различным причинам, а приведенные значения являются расчетными модельными данными для данного пункта наблюдений.
Смотрите также архив погоды в соседних городах и на ближайших метеорологических станциях:
Партнеры нашего сайта:      
Пояснения к столбцам:
  • Ветер - указаны скорость ветра в м/с - средняя за 10 мин, порывы в срок и между сроками (в фигурных скобках) и направление, откуда дует ветер: С - северный,
  • СВ - северо-восточный, В - восточный, ЮВ - юго-восточный, Ю - южный, ЮЗ - юго-западный, З - западный, СЗ - северо-западный.
  • Видимость - горизонтальная дальность видимости в метрах или километрах. При видимости от 1 до 10 км при отсутствии осадков обычно наблюдается дымка, при ухудшении видимости до 1 км и менее - туман. В сухую погоду видимость может ухудшаться дымом, пылью или мглою.
  • Явления - указаны атмосферные явления, наблюдавшиеся в срок или в последний час перед сроком; фигурными скобками обозначены явления, наблюдавшиеся между сроками (за 1-3 часа до срока); квадратными скобками обозначены град или гололедные отложения с указанием их диаметра в мм.
  • Облачность - указаны через наклонную черту общая и нижняя облачность в баллах и высота нижней границы облаков в метрах; квадратными скобками обозначены формы облаков: Ci - перистые, Cs - перисто-слоистые, Cc - перисто-кучевые, Ac - высококучевые, As - высокослоистые, Sc - слоисто-кучевые, Ns - слоисто-дождевые, Cu - кучевые, Cb - кучево-дождевые. Подробнее классификацию облаков см. в Атласе облаков (PDF).
  • T - Температура воздуха - температура, измеренная на высоте 2 м над землей.
  • Td - Температура точки росы - температура, при понижении до которой содержащийся в воздухе водяной пар достигнет насыщения.
  • f - Относительная влажность воздуха - влажноcть воздуха, измеренная на высоте 2 м над землей.
  • Te - Эффективная температура - температура, которую ощущает одетый по сезону человек в тени. Характеристика душности погоды. При расчете учитывается влияние влажности воздуха и скорости ветра на теплоощущения человека.
  • Tes - Эффективная температура на солнце - температура, которую ощущает человек, с поправкой на солнечный нагрев. Характеристика знойности погоды. Зависит от высоты солнца над горизонтом, облачности и скорости ветра. Ночью, в пасмурную погоду, а также при ветре 12 м/с и более поправка равна нулю.
  • P - Атмосферное давление - приведенное к уровню моря атмосферное давление.
  • Po - Атмосферное давление - измеренное на уровне метеостанции атмосферное давление.
  • Tmin - Минимальная температура - минимум температуры воздуха на высоте 2 м над землей.
  • Tmax - Максимальная температура - максимум температуры воздуха на высоте 2 м над землей.
  • R - Количество осадков - Количество выпавших осадков за период времени, мм. При наведении курсора мыши на число - период времени, за который выпало указанное количество осадков.
  • R24 - Количество осадков - Количество выпавших осадков за 24 часа, мм.
  • S - Снежный покров - Высота снежного покрова, см. При наведении курсора мыши на число - состояние снежного покрова и степень покрытия местности в баллах.